Location: Kelshall
(52.0000°N, 0.0500°W)
Time: 02:12:55
(UTC+00:00)

Cosmos 2082 Rocket - Pass Details

Date: 18 September 2020
Orbit: 834 x 853 km, 71.0° (Epoch: 30 October)

Event Time Altitude Azimuth Distance (km) Brightness Sun altitude
Rises 22:22:07 0° 326° (NNW) 3,393 6.4 -33.2°
Reaches altitude 10° 22:24:37 10° 322° (NW) 2,456 5.4 -33.4°
Enters shadow 22:28:27 39° 294° (WNW) 1,241 3.3 -33.6°
